,,PA_Meas_PMT16A,,PR_Meas_QMR101_102,,RH_Meas_QMH101,,SR_Meas_QMS101,,TA_Meas_QMH101,,GenWind,,GenWind,
time,status,PA,status,PR,status,RH,status,SR,status,TA,status,DirAvg,status,SpdAvg,
2010-07-11, 00:00:04,VALID,918.834,VALID,0,VALID,96.3219,VALID,0,VALID,20.3464,VALID,129,VALID,0.830469,
2010-07-11, 00:01:04,VALID,918.813,VALID,0,VALID,96.3905,VALID,0,VALID,20.3253,VALID,129,VALID,0.661719,
2010-07-11, 00:02:04,VALID,918.803,VALID,0,VALID,96.4515,VALID,0,VALID,20.3058,VALID,129,VALID,0.907031,
2010-07-11, 00:03:04,VALID,918.817,VALID,0,VALID,96.4896,VALID,0,VALID,20.3464,VALID,130,VALID,1.1168,
2010-07-11, 00:04:04,VALID,918.819,VALID,0,VALID,96.5277,VALID,0,VALID,20.3464,VALID,158,VALID,0.719141,
2010-07-11, 00:05:04,VALID,918.826,VALID,0,VALID,96.5582,VALID,0,VALID,20.3659,VALID,158,VALID,0.892187,
2010-07-11, 00:06:04,VALID,918.837,VALID,0,VALID,96.5734,VALID,0,VALID,20.3659,VALID,158,VALID,0.686328,
2010-07-11, 00:07:04,VALID,918.818,VALID,0,VALID,96.6192,VALID,0,VALID,20.3464,VALID,158,VALID,0.405078,
2010-07-11, 00:08:04,VALID,918.746,VALID,0,VALID,96.6344,VALID,0,VALID,20.3659,VALID,158,VALID,0.851563,
2010-07-11, 00:09:04,VALID,918.694,VALID,0,VALID,96.6649,VALID,0,VALID,20.3659,VALID,158,VALID,0.775781,
2010-07-11, 00:10:04,VALID,918.653,VALID,0,VALID,96.6878,VALID,0,VALID,20.3464,VALID,158,VALID,0.902734,
2010-07-11, 00:11:04,VALID,918.64,VALID,0,VALID,96.703,VALID,0,VALID,20.3659,VALID,158,VALID,0.771484,
2010-07-11, 00:12:04,VALID,918.625,VALID,0,VALID,96.7183,VALID,0,VALID,20.3659,VALID,158,VALID,0.675391,
2010-07-11, 00:13:04,VALID,918.64,VALID,0,VALID,96.7259,VALID,0,VALID,20.3448,VALID,158,VALID,0.867188,
2010-07-11, 00:14:04,VALID,918.641,VALID,0,VALID,96.7793,VALID,0,VALID,20.3448,VALID,158,VALID,0.584375,
2010-07-11, 00:15:04,VALID,918.651,VALID,0,VALID,96.7564,VALID,0,VALID,20.3659,VALID,158,VALID,0.673047,
2010-07-11, 00:16:04,VALID,918.649,VALID,0,VALID,96.7716,VALID,0.107441,VALID,20.3643,VALID,158,VALID,0.8875,
2010-07-11, 00:17:04,VALID,918.652,VALID,0,VALID,96.7716,VALID,0,VALID,20.3448,VALID,158,VALID,0.680469,
2010-07-11, 00:18:04,VALID,918.629,VALID,0,VALID,96.7716,VALID,0,VALID,20.3464,VALID,158,VALID,0.969141,
2010-07-11, 00:19:04,VALID,918.652,VALID,0,VALID,96.7945,VALID,0,VALID,20.3448,VALID,157,VALID,0.897656,
2010-07-11, 00:20:04,VALID,918.625,VALID,0,VALID,96.7945,VALID,0,VALID,20.3448,VALID,157,VALID,0.780078,
2010-07-11, 00:21:04,VALID,918.593,VALID,0,VALID,96.7869,VALID,0,VALID,20.3448,VALID,157,VALID,0.907422,
2010-07-11, 00:22:04,VALID,918.563,VALID,0,VALID,96.7945,VALID,0,VALID,20.3238,VALID,157,VALID,0.736719,
2010-07-11, 00:23:04,VALID,918.532,VALID,0,VALID,96.8021,VALID,0,VALID,20.3448,VALID,157,VALID,0.828906,
2010-07-11, 00:24:04,VALID,918.508,VALID,0,VALID,96.8021,VALID,0,VALID,20.3643,VALID,134,VALID,0.788281,
2010-07-11, 00:25:04,VALID,918.474,VALID,0,VALID,96.8021,VALID,0,VALID,20.3838,VALID,134,VALID,0.804297,
2010-07-11, 00:26:04,VALID,918.456,VALID,0,VALID,96.8098,VALID,0.107441,VALID,20.3838,VALID,134,VALID,0.489453,
2010-07-11, 00:27:04,VALID,918.411,VALID,0,VALID,96.8021,VALID,0.107441,VALID,20.3838,VALID,134,VALID,0.525781,
2010-07-11, 00:28:04,VALID,918.408,VALID,0,VALID,96.7945,VALID,0,VALID,20.4033,VALID,134,VALID,0.727734,
2010-07-11, 00:29:04,VALID,918.408,VALID,0,VALID,96.8021,VALID,0,VALID,20.4033,VALID,134,VALID,0.785156,
2010-07-11, 00:30:04,VALID,918.344,VALID,0.2,VALID,96.764,VALID,0,VALID,20.4033,VALID,134,VALID,0.222266,
2010-07-11, 00:31:04,VALID,918.379,VALID,0,VALID,96.7716,VALID,0,VALID,20.4228,VALID,134,VALID,0.000390625,
2010-07-11, 00:32:04,VALID,918.367,VALID,0,VALID,96.7945,VALID,0.107441,VALID,20.4423,VALID,134,VALID,0.218359,
2010-07-11, 00:33:04,VALID,918.36,VALID,0,VALID,96.7716,VALID,0,VALID,20.4423,VALID,134,VALID,0.221484,
2010-07-11, 00:34:04,VALID,918.378,VALID,0,VALID,96.7488,VALID,0,VALID,20.4213,VALID,134,VALID,0,
2010-07-11, 00:35:04,VALID,918.358,VALID,0,VALID,96.7716,VALID,0,VALID,20.4618,VALID,134,VALID,0.046875,
2010-07-11, 00:36:04,VALID,918.353,VALID,0,VALID,96.8021,VALID,0,VALID,20.4813,VALID,134,VALID,0,
2010-07-11, 00:37:04,VALID,918.409,VALID,0,VALID,96.7564,VALID,0,VALID,20.4813,VALID,134,VALID,0,
2010-07-11, 00:38:04,VALID,918.403,VALID,0,VALID,96.764,VALID,0,VALID,20.4813,VALID,134,VALID,0,
2010-07-11, 00:39:04,VALID,918.422,VALID,0,VALID,96.7259,VALID,0,VALID,20.4618,VALID,134,VALID,0,
2010-07-11, 00:40:04,VALID,918.429,VALID,0.2,VALID,96.7183,VALID,0,VALID,20.4618,VALID,134,VALID,0.183594,
2010-07-11, 00:41:04,VALID,918.414,VALID,0,VALID,96.7183,VALID,0,VALID,20.4618,VALID,134,VALID,0.171094,
2010-07-11, 00:42:04,VALID,918.437,VALID,0,VALID,96.703,VALID,0,VALID,20.4423,VALID,134,VALID,0.182812,
2010-07-11, 00:43:04,VALID,918.4,VALID,0,VALID,96.6802,VALID,0.107441,VALID,20.4618,VALID,134,VALID,0.0546875,
2010-07-11, 00:44:04,VALID,918.419,VALID,0,VALID,96.703,VALID,0,VALID,20.4213,VALID,134,VALID,0.0765625,
2010-07-11, 00:45:04,VALID,918.421,VALID,0,VALID,96.7259,VALID,0,VALID,20.4618,VALID,134,VALID,0.0699219,
2010-07-11, 00:46:04,VALID,918.365,VALID,0,VALID,96.7107,VALID,0,VALID,20.4618,VALID,134,VALID,0,
2010-07-11, 00:47:04,VALID,918.381,VALID,0,VALID,96.6954,VALID,0,VALID,20.4813,VALID,134,VALID,0.0613281,
2010-07-11, 00:48:04,VALID,918.361,VALID,0,VALID,96.7183,VALID,0,VALID,20.4813,VALID,134,VALID,0.147656,
2010-07-11, 00:49:04,VALID,918.357,VALID,0,VALID,96.6802,VALID,0,VALID,20.4813,VALID,134,VALID,0.090625,
2010-07-11, 00:50:04,VALID,918.322,VALID,0,VALID,96.6649,VALID,0.107441,VALID,20.4618,VALID,134,VALID,0.284766,
2010-07-11, 00:51:04,VALID,918.314,VALID,0,VALID,96.6497,VALID,0,VALID,20.4423,VALID,134,VALID,0.446484,
2010-07-11, 00:52:04,VALID,918.332,VALID,0,VALID,96.6344,VALID,0,VALID,20.4618,VALID,134,VALID,0.474219,
2010-07-11, 00:53:04,VALID,918.306,VALID,0.2,VALID,96.6192,VALID,0,VALID,20.4618,VALID,134,VALID,0.411328,
2010-07-11, 00:54:04,VALID,918.34,VALID,0,VALID,96.6344,VALID,0,VALID,20.4618,VALID,134,VALID,0.544141,
2010-07-11, 00:55:04,VALID,918.287,VALID,0,VALID,96.6344,VALID,0,VALID,20.4408,VALID,134,VALID,0.0761719,
2010-07-11, 00:56:04,VALID,918.309,VALID,0,VALID,96.6497,VALID,0,VALID,20.4813,VALID,134,VALID,0,
2010-07-11, 00:57:04,VALID,918.281,VALID,0,VALID,96.6573,VALID,0,VALID,20.5009,VALID,134,VALID,0,
2010-07-11, 00:58:04,VALID,918.288,VALID,0,VALID,96.5811,VALID,0,VALID,20.4813,VALID,134,VALID,0.372656,
2010-07-11, 00:59:04,VALID,918.285,VALID,0,VALID,96.5277,VALID,0,VALID,20.4813,VALID,134,VALID,0.225391,
2010-07-11, 01:00:04,VALID,918.296,VALID,0,VALID,96.5124,VALID,0,VALID,20.5009,VALID,134,VALID,0,
2010-07-11, 01:01:04,VALID,918.249,VALID,0,VALID,96.4743,VALID,0,VALID,20.5399,VALID,134,VALID,0.102344,
2010-07-11, 01:02:04,VALID,918.247,VALID,0,VALID,96.4667,VALID,0,VALID,20.5399,VALID,134,VALID,0,
2010-07-11, 01:03:04,VALID,918.245,VALID,0,VALID,96.4743,VALID,0,VALID,20.5609,VALID,134,VALID,0,
2010-07-11, 01:04:04,VALID,918.239,VALID,0,VALID,96.4515,VALID,0,VALID,20.5594,VALID,134,VALID,0,
2010-07-11, 01:05:04,VALID,918.197,VALID,0.2,VALID,96.421,VALID,0,VALID,20.5789,VALID,134,VALID,0,
2010-07-11, 01:06:04,VALID,918.197,VALID,0,VALID,96.3905,VALID,0,VALID,20.5594,VALID,134,VALID,0,
2010-07-11, 01:07:04,VALID,918.231,VALID,0,VALID,96.3066,VALID,0,VALID,20.5399,VALID,134,VALID,0,
2010-07-11, 01:08:04,VALID,918.221,VALID,0,VALID,96.238,VALID,0,VALID,20.4798,VALID,134,VALID,0.398438,
2010-07-11, 01:09:04,VALID,918.239,VALID,0,VALID,96.1541,VALID,0,VALID,20.4813,VALID,134,VALID,0.625391,
2010-07-11, 01:10:04,VALID,918.206,VALID,0,VALID,96.1008,VALID,0,VALID,20.4618,VALID,134,VALID,0.477734,
2010-07-11, 01:11:04,VALID,918.246,VALID,0,VALID,96.1084,VALID,0,VALID,20.4423,VALID,134,VALID,0.409375,
2010-07-11, 01:12:04,VALID,918.221,VALID,0.2,VALID,96.0932,VALID,0,VALID,20.4634,VALID,134,VALID,0.291797,
2010-07-11, 01:13:04,VALID,918.219,VALID,0,VALID,96.1999,VALID,0,VALID,20.4213,VALID,134,VALID,0.34375,
2010-07-11, 01:14:04,VALID,918.221,VALID,0,VALID,96.299,VALID,0,VALID,20.4618,VALID,134,VALID,0.348047,
2010-07-11, 01:15:04,VALID,918.24,VALID,0.2,VALID,96.3142,VALID,0,VALID,20.4228,VALID,134,VALID,0.421484,
2010-07-11, 01:16:04,VALID,918.212,VALID,0,VALID,96.3447,VALID,0,VALID,20.4228,VALID,134,VALID,0.48125,
2010-07-11, 01:17:04,VALID,918.207,VALID,0.2,VALID,96.3295,VALID,0,VALID,20.4033,VALID,134,VALID,0.55625,
2010-07-11, 01:18:04,VALID,918.186,VALID,0,VALID,96.3447,VALID,0,VALID,20.3643,VALID,134,VALID,0.45625,
2010-07-11, 01:19:04,VALID,918.178,VALID,0,VALID,96.3981,VALID,0,VALID,20.3448,VALID,134,VALID,0.491797,
2010-07-11, 01:20:04,VALID,918.186,VALID,0.2,VALID,96.4515,VALID,0,VALID,20.3448,VALID,134,VALID,0.635156,
2010-07-11, 01:21:04,VALID,918.181,VALID,0,VALID,96.4667,VALID,0,VALID,20.3238,VALID,134,VALID,0.512891,
2010-07-11, 01:22:04,VALID,918.157,VALID,0.2,VALID,96.5201,VALID,0.107441,VALID,20.3643,VALID,134,VALID,0.597656,
2010-07-11, 01:23:04,VALID,918.148,VALID,0,VALID,96.5658,VALID,0,VALID,20.3643,VALID,134,VALID,0.429688,
2010-07-11, 01:24:04,VALID,918.121,VALID,0,VALID,96.5963,VALID,0,VALID,20.3838,VALID,134,VALID,0.626953,
2010-07-11, 01:25:04,VALID,918.155,VALID,0.2,VALID,96.6192,VALID,0,VALID,20.3628,VALID,149,VALID,0.632031,
2010-07-11, 01:26:04,VALID,918.079,VALID,0,VALID,96.6344,VALID,0,VALID,20.4033,VALID,149,VALID,0.472266,
2010-07-11, 01:27:04,VALID,918.075,VALID,0,VALID,96.6497,VALID,0,VALID,20.3838,VALID,149,VALID,0.598437,
2010-07-11, 01:28:04,VALID,918.038,VALID,0.2,VALID,96.6573,VALID,0,VALID,20.3643,VALID,149,VALID,0.608203,
2010-07-11, 01:29:04,VALID,918.021,VALID,0,VALID,96.6802,VALID,0,VALID,20.3838,VALID,149,VALID,0.266406,
2010-07-11, 01:30:04,VALID,918.031,VALID,0,VALID,96.6802,VALID,0,VALID,20.3448,VALID,149,VALID,0.757422,
2010-07-11, 01:31:04,VALID,918.036,VALID,0,VALID,96.6954,VALID,0,VALID,20.3253,VALID,149,VALID,0.526953,
2010-07-11, 01:32:04,VALID,918.055,VALID,0,VALID,96.7107,VALID,0,VALID,20.3253,VALID,149,VALID,0.669141,
2010-07-11, 01:33:04,VALID,918.072,VALID,0,VALID,96.7411,VALID,0,VALID,20.3253,VALID,149,VALID,0.621094,
2010-07-11, 01:34:04,VALID,918.094,VALID,0,VALID,96.7716,VALID,0,VALID,20.3058,VALID,149,VALID,0.562891,
2010-07-11, 01:35:04,VALID,918.108,VALID,0.2,VALID,96.8021,VALID,0,VALID,20.3058,VALID,149,VALID,0.850391,
2010-07-11, 01:36:04,VALID,918.058,VALID,0,VALID,96.825,VALID,0,VALID,20.2863,VALID,149,VALID,0.677344,
2010-07-11, 01:37:04,VALID,918.056,VALID,0,VALID,96.8403,VALID,0,VALID,20.3253,VALID,149,VALID,0.721094,
2010-07-11, 01:38:04,VALID,918.024,VALID,0,VALID,96.8707,VALID,0,VALID,20.3058,VALID,149,VALID,0.841406,
2010-07-11, 01:39:04,VALID,918.017,VALID,0,VALID,96.8479,VALID,0,VALID,20.3058,VALID,149,VALID,0.742578,
2010-07-11, 01:40:04,VALID,917.99,VALID,0,VALID,96.8707,VALID,0,VALID,20.2653,VALID,149,VALID,0.897266,
2010-07-11, 01:41:04,VALID,917.972,VALID,0,VALID,96.8784,VALID,0,VALID,20.2863,VALID,149,VALID,0.95,
2010-07-11, 01:42:04,VALID,917.952,VALID,0,VALID,96.9012,VALID,0,VALID,20.3058,VALID,149,VALID,0.674219,
2010-07-11, 01:43:04,VALID,917.925,VALID,0,VALID,96.8784,VALID,0,VALID,20.2863,VALID,149,VALID,0.657422,
2010-07-11, 01:44:04,VALID,917.945,VALID,0,VALID,96.9317,VALID,0,VALID,20.2863,VALID,149,VALID,0.989062,
2010-07-11, 01:45:04,VALID,917.933,VALID,0,VALID,96.9622,VALID,0,VALID,20.2863,VALID,149,VALID,0.880078,
2010-07-11, 01:46:04,VALID,917.909,VALID,0,VALID,96.9546,VALID,0,VALID,20.3058,VALID,149,VALID,0.854297,
2010-07-11, 01:47:04,VALID,917.915,VALID,0,VALID,96.947,VALID,0,VALID,20.2848,VALID,149,VALID,0.843359,
2010-07-11, 01:48:04,VALID,917.885,VALID,0,VALID,96.9622,VALID,0,VALID,20.2848,VALID,149,VALID,1.09102,
2010-07-11, 01:49:04,VALID,917.909,VALID,0,VALID,96.9622,VALID,0,VALID,20.3043,VALID,149,VALID,0.924219,
2010-07-11, 01:50:04,VALID,917.852,VALID,0,VALID,96.9622,VALID,0,VALID,20.3253,VALID,149,VALID,0.692578,
2010-07-11, 01:51:04,VALID,917.843,VALID,0,VALID,96.9698,VALID,0,VALID,20.3253,VALID,149,VALID,0.6125,
2010-07-11, 01:52:04,VALID,917.842,VALID,0,VALID,96.9775,VALID,0,VALID,20.3448,VALID,149,VALID,0.543359,
2010-07-11, 01:53:04,VALID,917.847,VALID,0,VALID,96.9851,VALID,0,VALID,20.3448,VALID,149,VALID,0.524609,
2010-07-11, 01:54:04,VALID,917.852,VALID,0,VALID,96.9775,VALID,0,VALID,20.3253,VALID,149,VALID,0.493359,
2010-07-11, 01:55:04,VALID,917.863,VALID,0,VALID,96.9394,VALID,0,VALID,20.3253,VALID,149,VALID,0.714844,
2010-07-11, 01:56:04,VALID,917.856,VALID,0,VALID,96.9394,VALID,0,VALID,20.3058,VALID,149,VALID,0.626953,
2010-07-11, 01:57:04,VALID,917.854,VALID,0,VALID,96.9698,VALID,0,VALID,20.3058,VALID,149,VALID,0.693359,
2010-07-11, 01:58:04,VALID,917.816,VALID,0,VALID,96.9851,VALID,0,VALID,20.3058,VALID,149,VALID,0.861328,
2010-07-11, 01:59:04,VALID,917.826,VALID,0,VALID,96.9622,VALID,0,VALID,20.3058,VALID,149,VALID,0.852734,
2010-07-11, 02:00:04,VALID,917.821,VALID,0,VALID,96.9775,VALID,0,VALID,20.3253,VALID,149,VALID,1.00586,
2010-07-11, 02:01:04,VALID,917.804,VALID,0,VALID,97.008,VALID,0,VALID,20.3448,VALID,149,VALID,0.842188,
2010-07-11, 02:02:04,VALID,917.739,VALID,0,VALID,97.0003,VALID,0,VALID,20.3643,VALID,149,VALID,0.648438,
2010-07-11, 02:03:04,VALID,917.751,VALID,0,VALID,97.0156,VALID,0,VALID,20.3643,VALID,149,VALID,0.666797,
2010-07-11, 02:04:04,VALID,917.702,VALID,0,VALID,96.9851,VALID,0,VALID,20.3643,VALID,149,VALID,0.514844,
2010-07-11, 02:05:04,VALID,917.695,VALID,0,VALID,96.9775,VALID,0,VALID,20.3643,VALID,149,VALID,0.691406,
2010-07-11, 02:06:04,VALID,917.647,VALID,0,VALID,96.9698,VALID,0,VALID,20.3643,VALID,149,VALID,0.682813,
2010-07-11, 02:07:04,VALID,917.623,VALID,0,VALID,96.9546,VALID,0,VALID,20.3448,VALID,149,VALID,0.811328,
2010-07-11, 02:08:04,VALID,917.616,VALID,0,VALID,96.9546,VALID,0,VALID,20.3464,VALID,149,VALID,0.570313,
2010-07-11, 02:09:04,VALID,917.585,VALID,0,VALID,96.9317,VALID,0,VALID,20.3058,VALID,149,VALID,0.376953,
2010-07-11, 02:10:04,VALID,917.599,VALID,0,VALID,96.9546,VALID,0,VALID,20.3253,VALID,149,VALID,0.526172,
2010-07-11, 02:11:04,VALID,917.562,VALID,0,VALID,96.9851,VALID,0,VALID,20.3058,VALID,149,VALID,0.532422,
2010-07-11, 02:12:04,VALID,917.604,VALID,0,VALID,96.9851,VALID,0,VALID,20.3058,VALID,149,VALID,0.531641,
2010-07-11, 02:13:04,VALID,917.6,VALID,0,VALID,96.9927,VALID,0,VALID,20.3464,VALID,149,VALID,0.824219,
2010-07-11, 02:14:04,VALID,917.617,VALID,0,VALID,96.9851,VALID,0,VALID,20.3058,VALID,149,VALID,0.68125,
2010-07-11, 02:15:04,VALID,917.606,VALID,0,VALID,96.9851,VALID,0,VALID,20.3058,VALID,149,VALID,0.712891,
2010-07-11, 02:16:04,VALID,917.652,VALID,0,VALID,96.9851,VALID,0,VALID,20.3058,VALID,149,VALID,0.731641,
2010-07-11, 02:17:04,VALID,917.645,VALID,0,VALID,97.0003,VALID,0,VALID,20.3058,VALID,149,VALID,0.887109,
2010-07-11, 02:18:04,VALID,917.599,VALID,0,VALID,97.0232,VALID,0,VALID,20.3058,VALID,149,VALID,0.790234,
2010-07-11, 02:19:04,VALID,917.579,VALID,0,VALID,97.0385,VALID,0,VALID,20.3058,VALID,149,VALID,0.632031,
2010-07-11, 02:20:05,VALID,917.559,VALID,0,VALID,97.0232,VALID,0,VALID,20.3253,VALID,149,VALID,0.866797,
2010-07-11, 02:21:05,VALID,917.483,VALID,0,VALID,97.0156,VALID,0,VALID,20.3448,VALID,149,VALID,0.594141,
2010-07-11, 02:22:05,VALID,917.464,VALID,0,VALID,97.0308,VALID,0,VALID,20.3448,VALID,149,VALID,0.271094,
2010-07-11, 02:23:05,VALID,917.46,VALID,0,VALID,97.0156,VALID,0,VALID,20.3659,VALID,149,VALID,0.432031,
2010-07-11, 02:24:05,VALID,917.416,VALID,0,VALID,97.0308,VALID,0,VALID,20.3643,VALID,149,VALID,0.310547,
2010-07-11, 02:25:05,VALID,917.411,VALID,0,VALID,97.0232,VALID,0.107441,VALID,20.3643,VALID,149,VALID,0.457422,
2010-07-11, 02:26:05,VALID,917.39,VALID,0,VALID,97.0385,VALID,0,VALID,20.3448,VALID,149,VALID,0.483203,
2010-07-11, 02:27:05,VALID,917.368,VALID,0,VALID,97.0232,VALID,0,VALID,20.3643,VALID,149,VALID,0.632813,
2010-07-11, 02:28:05,VALID,917.395,VALID,0,VALID,97.008,VALID,0,VALID,20.3643,VALID,149,VALID,0.590625,
2010-07-11, 02:29:05,VALID,917.388,VALID,0,VALID,97.0232,VALID,0,VALID,20.3643,VALID,149,VALID,0.428125,
2010-07-11, 02:30:05,VALID,917.367,VALID,0,VALID,97.0461,VALID,0.107441,VALID,20.3643,VALID,149,VALID,0.794922,
2010-07-11, 02:31:05,VALID,917.357,VALID,0,VALID,97.0232,VALID,0.107441,VALID,20.3838,VALID,149,VALID,0.656641,
2010-07-11, 02:32:05,VALID,917.357,VALID,0,VALID,97.0232,VALID,0,VALID,20.3643,VALID,149,VALID,0.882031,
2010-07-11, 02:33:05,VALID,917.397,VALID,0,VALID,97.0308,VALID,0,VALID,20.3643,VALID,148,VALID,0.920313,
2010-07-11, 02:34:05,VALID,917.376,VALID,0,VALID,97.0461,VALID,0,VALID,20.3448,VALID,148,VALID,0.760156,
2010-07-11, 02:35:05,VALID,917.374,VALID,0,VALID,97.0461,VALID,0,VALID,20.3643,VALID,148,VALID,0.769922,
2010-07-11, 02:36:05,VALID,917.334,VALID,0,VALID,97.0537,VALID,0,VALID,20.3643,VALID,148,VALID,0.939453,
2010-07-11, 02:37:05,VALID,917.329,VALID,0,VALID,97.0385,VALID,0,VALID,20.3838,VALID,148,VALID,1.20234,
2010-07-11, 02:38:05,VALID,917.343,VALID,0,VALID,97.0613,VALID,0,VALID,20.3643,VALID,148,VALID,1.32813,
2010-07-11, 02:39:05,VALID,917.358,VALID,0,VALID,97.0385,VALID,0,VALID,20.3643,VALID,148,VALID,1.21289,
2010-07-11, 02:40:05,VALID,917.346,VALID,0,VALID,97.0385,VALID,0,VALID,20.3448,VALID,148,VALID,1.25703,
2010-07-11, 02:41:05,VALID,917.387,VALID,0,VALID,97.0537,VALID,0,VALID,20.3448,VALID,148,VALID,0.859766,
2010-07-11, 02:42:05,VALID,917.388,VALID,0,VALID,97.0537,VALID,0.107441,VALID,20.3643,VALID,148,VALID,0.642578,
2010-07-11, 02:43:05,VALID,917.4,VALID,0,VALID,97.0537,VALID,0.107441,VALID,20.3448,VALID,148,VALID,0.338672,
2010-07-11, 02:44:05,VALID,917.417,VALID,0,VALID,97.0537,VALID,0.107441,VALID,20.3643,VALID,148,VALID,0.660937,
2010-07-11, 02:45:05,VALID,917.408,VALID,0,VALID,97.069,VALID,0,VALID,20.3643,VALID,148,VALID,0.657031,
2010-07-11, 02:46:05,VALID,917.436,VALID,0,VALID,97.0842,VALID,0,VALID,20.3643,VALID,148,VALID,0.335938,
2010-07-11, 02:47:05,VALID,917.406,VALID,0,VALID,97.0613,VALID,0.107441,VALID,20.3643,VALID,148,VALID,0.323438,
2010-07-11, 02:48:05,VALID,917.428,VALID,0,VALID,97.069,VALID,0,VALID,20.3838,VALID,148,VALID,0.142969,
2010-07-11, 02:49:05,VALID,917.379,VALID,0,VALID,97.0918,VALID,0,VALID,20.3838,VALID,148,VALID,0,
2010-07-11, 02:50:05,VALID,917.39,VALID,0,VALID,97.0918,VALID,0,VALID,20.4228,VALID,148,VALID,0.237109,
2010-07-11, 02:51:05,VALID,917.333,VALID,0,VALID,97.0918,VALID,0,VALID,20.4228,VALID,148,VALID,0,
2010-07-11, 02:52:05,VALID,917.341,VALID,0,VALID,97.0994,VALID,0,VALID,20.4228,VALID,148,VALID,0.282031,
2010-07-11, 02:53:05,VALID,917.323,VALID,0,VALID,97.0918,VALID,0,VALID,20.4213,VALID,148,VALID,0,
2010-07-11, 02:54:05,VALID,917.302,VALID,0,VALID,97.0994,VALID,0,VALID,20.4423,VALID,148,VALID,0,
2010-07-11, 02:55:05,VALID,917.276,VALID,0,VALID,97.0994,VALID,0,VALID,20.4423,VALID,148,VALID,0,
2010-07-11, 02:56:05,VALID,917.295,VALID,0,VALID,97.0918,VALID,0.107441,VALID,20.4618,VALID,148,VALID,0,
2010-07-11, 02:57:05,VALID,917.287,VALID,0,VALID,97.0918,VALID,0.107441,VALID,20.4813,VALID,148,VALID,0,
2010-07-11, 02:58:05,VALID,917.285,VALID,0,VALID,97.0918,VALID,0,VALID,20.4408,VALID,148,VALID,0,
2010-07-11, 02:59:05,VALID,917.281,VALID,0,VALID,97.0994,VALID,0.107441,VALID,20.4408,VALID,148,VALID,0,
2010-07-11, 03:00:05,VALID,917.265,VALID,0,VALID,97.0918,VALID,0,VALID,20.4813,VALID,148,VALID,0.155078,
2010-07-11, 03:01:05,VALID,917.298,VALID,0,VALID,97.1071,VALID,0,VALID,20.4813,VALID,148,VALID,0.514063,
2010-07-11, 03:02:05,VALID,917.28,VALID,0,VALID,97.0918,VALID,0,VALID,20.4813,VALID,148,VALID,0.281641,
2010-07-11, 03:03:05,VALID,917.3,VALID,0,VALID,97.0994,VALID,0,VALID,20.4813,VALID,148,VALID,0,
2010-07-11, 03:04:05,VALID,917.307,VALID,0,VALID,97.0842,VALID,0,VALID,20.4813,VALID,148,VALID,0,
2010-07-11, 03:05:05,VALID,917.286,VALID,0,VALID,97.1071,VALID,0,VALID,20.4813,VALID,148,VALID,0.109766,
2010-07-11, 03:06:05,VALID,917.295,VALID,0,VALID,97.0994,VALID,0,VALID,20.4813,VALID,148,VALID,0.149219,
2010-07-11, 03:07:05,VALID,917.304,VALID,0,VALID,97.1071,VALID,0,VALID,20.4813,VALID,148,VALID,0,
2010-07-11, 03:08:05,VALID,917.294,VALID,0,VALID,97.1071,VALID,0,VALID,20.4603,VALID,148,VALID,0.239063,
2010-07-11, 03:09:05,VALID,917.27,VALID,0,VALID,97.0842,VALID,0,VALID,20.4408,VALID,148,VALID,0.126172,
2010-07-11, 03:10:05,VALID,917.252,VALID,0,VALID,97.0842,VALID,0,VALID,20.4228,VALID,148,VALID,0.750781,
2010-07-11, 03:11:05,VALID,917.271,VALID,0,VALID,97.0994,VALID,0.107441,VALID,20.4228,VALID,148,VALID,0.283984,
2010-07-11, 03:12:05,VALID,917.255,VALID,0,VALID,97.0766,VALID,0,VALID,20.4033,VALID,148,VALID,0.00585938,
2010-07-11, 03:13:05,VALID,917.223,VALID,0,VALID,97.0842,VALID,0,VALID,20.4228,VALID,148,VALID,0.258203,
2010-07-11, 03:14:05,VALID,917.225,VALID,0,VALID,97.0994,VALID,0.107441,VALID,20.4423,VALID,148,VALID,0.171094,
2010-07-11, 03:15:05,VALID,917.17,VALID,0,VALID,97.1071,VALID,0,VALID,20.4618,VALID,148,VALID,0,
2010-07-11, 03:16:05,VALID,917.223,VALID,0,VALID,97.0842,VALID,0,VALID,20.4423,VALID,148,VALID,0.729688,
2010-07-11, 03:17:05,VALID,917.212,VALID,0,VALID,97.1071,VALID,0,VALID,20.4423,VALID,148,VALID,0.658203,
2010-07-11, 03:18:05,VALID,917.176,VALID,0,VALID,97.0994,VALID,0,VALID,20.4423,VALID,147,VALID,0.752734,
2010-07-11, 03:19:05,VALID,917.179,VALID,0,VALID,97.0994,VALID,0,VALID,20.4423,VALID,148,VALID,0.489453,
2010-07-11, 03:20:05,VALID,917.196,VALID,0,VALID,97.1071,VALID,0,VALID,20.4618,VALID,148,VALID,0.203906,
2010-07-11, 03:21:05,VALID,917.199,VALID,0,VALID,97.1071,VALID,0,VALID,20.4618,VALID,162,VALID,1.00898,
2010-07-11, 03:22:05,VALID,917.2,VALID,0,VALID,97.0994,VALID,0,VALID,20.4423,VALID,179,VALID,1.33633,
2010-07-11, 03:23:05,VALID,917.186,VALID,0,VALID,97.1147,VALID,0,VALID,20.4618,VALID,159,VALID,1.19805,
2010-07-11, 03:24:05,VALID,917.185,VALID,0,VALID,97.1147,VALID,0.107441,VALID,20.4618,VALID,145,VALID,0.263672,
2010-07-11, 03:25:05,VALID,917.153,VALID,0,VALID,97.0842,VALID,0,VALID,20.4618,VALID,142,VALID,1.53516,
2010-07-11, 03:26:05,VALID,917.166,VALID,0,VALID,97.0918,VALID,0.107441,VALID,20.4603,VALID,169,VALID,0.732422,
2010-07-11, 03:27:05,VALID,917.132,VALID,0,VALID,97.0918,VALID,0,VALID,20.4813,VALID,183,VALID,1.29961,
2010-07-11, 03:28:05,VALID,917.136,VALID,0,VALID,97.0994,VALID,0,VALID,20.4813,VALID,153,VALID,1.07734,
2010-07-11, 03:29:05,VALID,917.139,VALID,0,VALID,97.0918,VALID,0,VALID,20.5009,VALID,159,VALID,1.65664,
2010-07-11, 03:30:05,VALID,917.103,VALID,0,VALID,97.0918,VALID,0,VALID,20.4993,VALID,152,VALID,1.28828,
2010-07-11, 03:31:05,VALID,917.13,VALID,0,VALID,97.0842,VALID,0,VALID,20.5204,VALID,146,VALID,1.0207,
2010-07-11, 03:32:05,VALID,917.114,VALID,0,VALID,97.0842,VALID,0.107441,VALID,20.5399,VALID,146,VALID,0.3,
2010-07-11, 03:33:05,VALID,917.116,VALID,0,VALID,97.069,VALID,0,VALID,20.5204,VALID,146,VALID,1.02773,
2010-07-11, 03:34:05,VALID,917.118,VALID,0,VALID,97.0613,VALID,0,VALID,20.5399,VALID,120,VALID,0.822656,
2010-07-11, 03:35:05,VALID,917.109,VALID,0,VALID,97.0461,VALID,0,VALID,20.5399,VALID,105,VALID,1.3875,
2010-07-11, 03:36:05,VALID,917.109,VALID,0,VALID,97.0461,VALID,0,VALID,20.5399,VALID,138,VALID,0.766797,
2010-07-11, 03:37:05,VALID,917.112,VALID,0,VALID,97.0308,VALID,0,VALID,20.5399,VALID,131,VALID,1.12578,
2010-07-11, 03:38:05,VALID,917.073,VALID,0,VALID,97.0232,VALID,0,VALID,20.5399,VALID,122,VALID,1.34102,
2010-07-11, 03:39:05,VALID,917.101,VALID,0,VALID,97.0003,VALID,0,VALID,20.5594,VALID,120,VALID,0.872266,
2010-07-11, 03:40:05,VALID,917.04,VALID,0,VALID,96.9927,VALID,0,VALID,20.5594,VALID,119,VALID,1.10117,
2010-07-11, 03:41:05,VALID,917.059,VALID,0,VALID,96.9698,VALID,0,VALID,20.5804,VALID,119,VALID,1.50508,
2010-07-11, 03:42:05,VALID,917.014,VALID,0,VALID,96.947,VALID,0,VALID,20.5789,VALID,131,VALID,1.43008,
2010-07-11, 03:43:05,VALID,917.038,VALID,0,VALID,96.9012,VALID,0,VALID,20.5789,VALID,126,VALID,0.745703,
2010-07-11, 03:44:05,VALID,917.033,VALID,0,VALID,96.8403,VALID,0,VALID,20.5789,VALID,126,VALID,1.02695,